Track STARLINK-3941 now! 10-day predictions STARLINK-3941 is classified as:
1 52638U 22052AS 22180.16667824 .00011576 00000-0 86821-4 0 9997 2 52638 53.2141 215.2550 0002574 20.7620 357.6208 15.73189365 7519